This is the latest recevied weather packets stored in our database for station/object K0SNA. If no packets are shown the sender has not sent any weather packets the latest 10 day(s).
| Time | Temp. | Humidity | Pressure | Rain* | Wind** | Luminosity | Snow |
|---|---|---|---|---|---|---|---|
| 1777736920 | 12.78° C | 40% | 1018.5 hPa | 0 mm | - | 555 W/m² | - |
| 1777736316 | 12.78° C | 41% | 1018.8 hPa | 0 mm | - | 533 W/m² | - |
| 1777736013 | 12.78° C | 41% | 1018.6 hPa | 0 mm | - | 524 W/m² | - |
| 1777735711 | 12.78° C | 41% | 1018.9 hPa | 0 mm | - | 395 W/m² | - |
| 1777735409 | 12.78° C | 41% | 1018.5 hPa | 0 mm | - | 471 W/m² | - |
| 1777735106 | 12.22° C | 43% | 1018.8 hPa | 0 mm | - | 465 W/m² | - |
| 1777734803 | 12.22° C | 42% | 1018.9 hPa | 0 mm | - | 428 W/m² | - |
| 1777734500 | 11.67° C | 45% | 1018.7 hPa | 0 mm | - | 456 W/m² | - |
| 1777734196 | 11.11° C | 47% | 1019.2 hPa | 0 mm | - | 461 W/m² | - |
| 1777733893 | 11.11° C | 48% | 1018.9 hPa | 0 mm | - | 448 W/m² | - |
| 1777733590 | 11.11° C | 49% | 1018.9 hPa | 0 mm | - | 344 W/m² | - |
| 1777733286 | 11.11° C | 49% | 1018.8 hPa | 0 mm | - | 329 W/m² | - |
| 1777732983 | 11.11° C | 49% | 1019.1 hPa | 0 mm | - | 319 W/m² | - |
| 1777732679 | 10.56° C | 50% | 1019 hPa | 0 mm | - | 320 W/m² | - |
| 1777732376 | 10.56° C | 50% | 1019.1 hPa | 0 mm | - | 338 W/m² | - |
| 1777732074 | 10.56° C | 50% | 1019.1 hPa | 0 mm | - | 353 W/m² | - |
| 1777731770 | 10.56° C | 52% | 1019.1 hPa | 0 mm | - | 392 W/m² | - |
| 1777731467 | 10° C | 52% | 1019.2 hPa | 0 mm | - | 376 W/m² | - |
| 1777731166 | 10° C | 52% | 1019.1 hPa | 0 mm | - | 350 W/m² | - |
| 1777730863 | 10° C | 53% | 1019.2 hPa | 0 mm | - | 322 W/m² | - |
| 1777730561 | 9.44° C | 54% | 1019.3 hPa | 0 mm | - | 300 W/m² | - |
| 1777730256 | 8.33° C | 56% | 1019.3 hPa | 0 mm | - | 275 W/m² | - |
| 1777729953 | 8.33° C | 56% | 1019.3 hPa | 0 mm | - | 290 W/m² | - |
| 1777729650 | 8.33° C | 56% | 1019.3 hPa | 0 mm | - | 152 W/m² | - |
| 1777729347 | 8.33° C | 56% | 1019.2 hPa | 0 mm | - | 261 W/m² | - |
* Rain latest hour (hover to see other rain measurements)
** Current wind speed in m/s (hover to see current wind gust speed)